OneWeb SL0434

operational
NORAD ID: 51631 Int'l Des: 2022-012 Owner: ONEWEBN Country: UK Constellation: oneweb
LEOCIRCULARPOLARONEWEB_TYPE

OneWeb SL0434について

説明を読み込み中...

リアルタイム位置

3D地球を読み込み中...

次回通過

高度履歴

Altitude vs Time

uPlot chart will show altitude changes over time

軌道要素

1 51631U 22012K 25260.89646611 .00000505 00000-0 14096-2 0 9991
2 51631 87.8741 90.5934 0002229 76.0745 284.0630 13.10374475173668
Epoch: Sep 17, 2025 • Age: 10 hours

現在のステータス

高度 1231.9 km
速度 7.25 km/s
衛星直下点 66.32°N, 159.38°E
打ち上げ日 Feb 10, 2022
運用期間 3.6 years
タイプ internet

技術仕様

分類 Payload
質量 148.00 kg
乾燥質量 140.00 kg
総質量 148.00 kg
長さ 1.30 m
直径 1.00 m
スパン 5.00 m
形状 Trapezoid+2 pan
製造者 ONEWUS
バスタイプ ARROW
フェーズステータス In Orbit
所有者/国 ONEWEBN/UK

大規模コンステレーション

Loading constellations...